Location: Poughquag
(41.6090°N, 73.6820°W)
Time: 08:16:16
(UTC-05:00)

STRAND 1 - Pass Details

Date: 03 December 2023
Orbit: 766 x 778 km, 98.4° (Epoch: 24 February)

Event Time Altitude Azimuth Distance (km) Brightness Sun altitude
Exits shadow 17:34:16 17° 59° (ENE) 1,865 ? -12.7°
Maximum altitude 17:36:28 22° 93° (E) 1,616 ? -13.1°
Drops below altitude 10° 17:40:23 10° 144° (SE) 2,301 ? -13.8°
Sets 17:43:10 0° 160° (SSE) 3,224 ? -14.2°
